Regional Weather Roundup
Issued by NWS

Home | Current Version | Previous Version | Text Only | Print | Product List | Glossary On
Versions: 1 2 3 4 5 6 7 8 9 10 11 12 13 14 15 16 17 18 19 20 21 22 23 24 25 26 27 28 29 30 31 32 33 34 35 36 37 38 39 40 41 42 43 44 45 46 47 48 49
000
ASUS42 KKEY 011310
RWRKEY

FLORIDA REGIONAL WEATHER ROUNDUP FOR THE FLORIDA KEYS
NATIONAL WEATHER SERVICE KEY WEST FLORIDA
900 AM EDT SAT AUG 01 2015

...SOUTH FLORIDA AND THE KEYS...

CITY           SKY/WX    TMP DP  RH WIND       PRES   REMARKS
FORT MYERS     CLOUDY    78  74  87 SE3       29.98R
SW REGIONAL AP CLOUDY    78  74  87 SE3       29.99R
NAPLES         CLOUDY    81  75  82 SE7       29.98R
MIAMI          CLOUDY    82  73  74 CALM      30.01R
WEST KENDALL   PTSUNNY   82  77  84 SE3       30.01R HX  90
HOMESTEAD      PTSUNNY   82  76  83 SE3       30.01R
MARATHON       PTSUNNY   88  78  72 SE7       30.00R HX 101
BOCA CHICA NAS PTSUNNY   87  75  67 SE12      29.99S HX  96
KEY WEST INTL  MOSUNNY   86  76  71 SE12      29.99S HX  96

...INTERNATIONAL WEATHER...

CITY           SKY/WX    TMP DP  RH WIND       PRES   REMARKS
NASSAU BAHAMAS PTSUNNY   86  75  70 E8        30.04S HX  95
CANCUN MEXICO  MOSUNNY   79  77  94 CALM      29.98S
COZUMEL MEXICO SUNNY     75  75 100 CALM      29.98S

ADJACENT COASTAL WATERS...

STATION/POSITION TIME  SKY/WX   TEMP    WIND        PRES    WAVE
                                AIR SEA DIR/SP/G            HT/PER
                 (UTC)          (F)     (DEG/KT/KT) (MB)    (FT/S)
PULASKI SHOAL LI 1200            85     170/ 12/ 15 1015.0R
SAND KEY         1250            85     160/ 14/ 16 1015.5R
SOMBRERO KEY     1300            85     150/ 12/ 13 1016.5R
LONG KEY         1200            85 88  160/ 10/ 12 1016.3R
MOLASSES REEF    1300            85 87  150/ 10/ 12 1016.3R
FOWEY ROCKS      NOT AVBL

$$


USA.gov is the U.S. government's official web portal to all federal, state and local government web resources and services.